Flag for Croatia Weather past 2 weeks in Zagreb, Croatia

Now
46 °F

Passing clouds.


Feels Like: 45 °F
Forecast: 42 / 66 °F
Wind: 3 mph from West

Location: Zagreb / Pleso

Current Time: Mar 30, 2015 at 3:27:26 AM

Latest Report: Mar 30, 2015 at 3:00 AM


Visibility: N/A

Pressure: 29.62 "Hg

Humidity: 71%

Dew point: 37 °F

Location of ZagrebLocation

Historic Weather in Zagreb — Graph

°F

Zagreb temperature yesterday

Maximum temperature yesterday: 64 °F (at 3:30 PM)
Minimum temperature yesterday: 32 °F (at 3:30 AM)
Average temperature yesterday: 49 °F

Past Weeks' High & Low Weather Summary

 TemperatureHumidityPressure
High68 °F (Mar 26, 1:30 PM)100% (Mar 27, 5:30 AM)30.45 "Hg (Mar 27, 5:30 AM)
Low28 °F (Mar 20, 6:00 AM)25% (Mar 21, 1:30 PM)29.65 "Hg (Mar 25, 5:00 PM)
Average47 °F66%30.07 "Hg
* Reported Mar 15 1:00 AM — Mar 30 2:00 AM, Zagreb, Weather by CustomWeather, © 2015

Note: Actual official high and low records may vary slightly from our data, if they occured in-between our weather recording intervals... More about our weather records

Advertising

Zagreb weather history for previous 24 hours

 ConditionsComfort  
Time TempWeatherWind HumidityBarometerVisibility
2:00 AM
Mon, Mar 30
50 °FClear.7 mph58%29.65 "Hg10 mi
1:30 AM48 °FClear.7 mph62%29.65 "Hg10 mi
1:00 AM50 °FClear.5 mph58%29.65 "Hg10 mi
12:30 AM50 °FClear.2 mph58%29.65 "Hg10 mi
12:00 AM52 °FClear.5 mph50%29.65 "Hg10 mi
11:30 PM
Sun, Mar 29
54 °FClear.7 mph47%29.68 "Hg10 mi
11:00 PM54 °FPassing clouds.6 mph51%29.68 "HgN/A
10:30 PM54 °FClear.2 mph54%29.71 "Hg10 mi
10:00 PM55 °FClear.2 mph51%29.71 "Hg10 mi
9:30 PM55 °FClear.2 mph44%29.71 "Hg10 mi
9:00 PM55 °FClear.5 mph44%29.74 "Hg10 mi
8:30 PM57 °FClear.3 mph41%29.74 "Hg10 mi
8:00 PM57 °FSunny.3 mph39%29.74 "Hg10 mi
7:30 PM59 °FSunny.5 mph36%29.74 "Hg10 mi
7:00 PM61 °FPassing clouds.3 mph34%29.74 "HgN/A
6:30 PM63 °FPassing clouds.6 mph32%29.74 "HgN/A
6:00 PM64 °FPassing clouds.6 mph28%29.74 "HgN/A
5:30 PM64 °FPassing clouds.5 mph28%29.74 "HgN/A
5:00 PM64 °FPassing clouds.5 mph28%29.74 "HgN/A
4:30 PM64 °FSunny.1 mph28%29.77 "Hg10 mi
4:00 PM64 °FSunny.5 mph28%29.77 "Hg10 mi
3:30 PM64 °FSunny.3 mph30%29.80 "Hg10 mi
3:00 PM63 °FPassing clouds.7 mph30%29.80 "HgN/A
2:30 PM61 °FPassing clouds.7 mph31%29.83 "HgN/A
2:00 PM59 °FPassing clouds.9 mph31%29.86 "HgN/A
1:30 PM59 °FPassing clouds.9 mph31%29.86 "HgN/A
1:00 PM57 °FPassing clouds.8 mph33%29.89 "HgN/A
12:30 PM55 °FPassing clouds.8 mph36%29.92 "HgN/A
12:00 PM54 °FPassing clouds.7 mph38%29.92 "HgN/A
11:30 AM54 °FPassing clouds.9 mph38%29.95 "HgN/A
11:00 AM52 °FPassing clouds.6 mph44%29.95 "HgN/A
10:30 AM48 °FPassing clouds.6 mph58%29.95 "HgN/A
10:00 AM45 °FPassing clouds.6 mph66%29.95 "HgN/A
9:30 AM45 °FSunny.7 mph66%29.98 "Hg10 mi
9:00 AM41 °FPassing clouds.5 mph76%29.98 "HgN/A
8:30 AM39 °FSunny.2 mph75%29.98 "Hg10 mi
8:00 AM37 °FPassing clouds.5 mph81%29.98 "HgN/A
7:30 AM36 °FClear.5 mph81%29.98 "Hg10 mi
7:00 AM34 °FClear.6 mph87%29.98 "Hg10 mi
6:30 AM32 °FClear.3 mph87%29.98 "Hg10 mi
6:00 AM32 °FClear.5 mph87%29.98 "Hg10 mi
5:30 AM32 °FClear.3 mph87%29.98 "Hg10 mi
5:00 AM32 °FClear.6 mph87%29.98 "Hg10 mi
4:30 AM32 °FClear.5 mph87%29.98 "Hg10 mi
4:00 AM32 °FClear.3 mph87%29.98 "Hg10 mi
3:30 AM32 °FClear.3 mph87%29.98 "Hg10 mi
3:00 AM34 °FClear.7 mph81%30.01 "Hg10 mi
Weather by CustomWeather, © 2015

See weather overviewHow to use our weather pages